Location: Kauvatsa
(61.3333°N, 22.5000°E)
Time: 17:14:39
(UTC+00:00)

Daily predictions for brighter satellites

Satellite Brightness Start Highest point End
(mag) Time Altitude Azimuth Time Altitude Azimuth Time Altitude Azimuth
Cosmos 2344 3.9 22:19:10 10° SSW 22:26:21 52° SE 22:34:41 10° ENE
Cosmos 2360 Rocket 3.8 22:23:21 10° W 22:28:43 41° NNW 22:34:05 10° NE
NOSS 3-3 (A) 4.2 22:22:36 10° WSW 22:28:52 81° SSE 22:36:07 10° ENE
NOSS 3-3 (C) 4.2 22:22:42 10° WSW 22:28:59 81° SSE 22:36:14 10° ENE
CZ-2D R/B 4.4 22:27:48 10° NE 22:30:28 14° E 22:33:09 10° ESE
Cosmos 1346 Rocket 3.4 22:28:32 10° S 22:32:17 45° E 22:36:04 10° NNE
Cosmos 2333 Rocket 3.1 22:30:46 10° WSW 22:36:23 55° NW 22:42:04 10° NE
GEOS 3 Rocket 4.1 22:32:02 10° ENE 22:37:24 72° NNW 22:42:47 10° WSW
RESURS DK-1 2.5 22:33:50 10° NW 22:37:57 62° SW 22:42:02 10° SSE
Cosmos 1980 Rocket 4.4 22:33:05 10° WNW 22:38:11 32° N 22:43:18 10° ENE
Cosmos 1515 Rocket 3.9 22:34:14 10° NNW 22:38:30 55° W 22:42:45 10° S
EO 1 Del DPAF 4.3 22:36:06 10° N 22:39:41 42° WNW 22:43:15 10° SW
ATLAS 2AS CENTAUR R/B 4.3 22:34:37 10° WNW 22:40:01 22° WSW 22:45:09 10° SSW
